When you browse on this site, cookies collect data to enhance your experience and personalize the content and advertising you see.
Visit our Privacy Policy to learn more. By continuing to use the site, you agree to this use of cookies and data.
  • In Schweiz
  • Länderverzeichnis
  • Für 7 Tage
  • Wassertemperatur
  • Wetterkarte
  • Widgets
  • user-avatar
    Anmelden

    Stündliche Wetter Luzern

    Heute, 25 Februar, Dienstag

    Zeit Temperatur Niederschläge Wind Luftdruck Luftfeuchtigkeit
    00:00 +9°C° 0 mm 2 m/S 720 mmHg 68%
    01:00 +9°C° 0 mm 2 m/S 719 mmHg 67%
    02:00 +8°C° 0 mm 2 m/S 718 mmHg 68%
    03:00 +8°C° 0 mm 2 m/S 718 mmHg 70%
    04:00 +8°C° 0 mm 2 m/S 717 mmHg 72%
    05:00 +7°C° 0 mm 2 m/S 717 mmHg 72%
    06:00 +7°C° 0 mm 2 m/S 717 mmHg 73%
    07:00 +7°C° 0 mm 2 m/S 717 mmHg 72%
    08:00 +8°C° 0 mm 2 m/S 717 mmHg 70%
    09:00 +9°C° 0 mm 2 m/S 716 mmHg 67%
    10:00 +10°C° 0 mm 3 m/S 716 mmHg 65%
    11:00 +11°C° 0 mm 3 m/S 716 mmHg 64%
    12:00 +11°C° 0 mm 4 m/S 715 mmHg 64%
    13:00 +10°C° 0 mm 5 m/S 715 mmHg 66%
    14:00 +11°C° 0.1 mm 4 m/S 715 mmHg 70%
    15:00 +10°C° 0.1 mm 4 m/S 714 mmHg 73%
    16:00 +10°C° 0.1 mm 4 m/S 714 mmHg 77%
    17:00 +8°C° 0.2 mm 4 m/S 713 mmHg 81%
    18:00 +8°C° 0.2 mm 3 m/S 713 mmHg 85%
    19:00 +7°C° 0.2 mm 2 m/S 713 mmHg 89%
    20:00 +7°C° 0.6 mm 2 m/S 713 mmHg 90%
    21:00 +7°C° 0.6 mm 3 m/S 712 mmHg 90%
    22:00 +5°C° 0.6 mm 3 m/S 712 mmHg 91%
    23:00 +5°C° 1 mm 3 m/S 711 mmHg 90%

    Morgen, 26 Februar, Mittwoch

    Zeit Temperatur Niederschläge Wind Luftdruck Luftfeuchtigkeit
    00:00 +4°C° 1 mm 4 m/S 711 mmHg 89%
    01:00 +4°C° 1 mm 4 m/S 711 mmHg 88%
    02:00 +3°C° 0.6 mm 4 m/S 711 mmHg 89%
    03:00 +1°C° 0.6 mm 4 m/S 710 mmHg 89%
    04:00 +2°C° 0.6 mm 3 m/S 710 mmHg 90%
    05:00 +1°C° 1.3 mm 3 m/S 710 mmHg 88%
    06:00 0°C° 1.3 mm 3 m/S 710 mmHg 86%
    07:00 0°C° 1.3 mm 3 m/S 711 mmHg 85%
    08:00 0°C° 0.4 mm 3 m/S 710 mmHg 85%
    09:00 -1°C° 0.4 mm 4 m/S 710 mmHg 85%
    10:00 0°C° 0.4 mm 5 m/S 710 mmHg 85%
    11:00 0°C° 1.2 mm 5 m/S 711 mmHg 83%
    12:00 0°C° 1.2 mm 5 m/S 711 mmHg 82%
    13:00 0°C° 1.2 mm 5 m/S 712 mmHg 81%
    14:00 0°C° 0.8 mm 5 m/S 712 mmHg 82%
    15:00 -1°C° 0.8 mm 5 m/S 713 mmHg 83%
    16:00 -1°C° 0.8 mm 5 m/S 713 mmHg 84%
    17:00 -1°C° 0.6 mm 4 m/S 714 mmHg 86%
    18:00 -2°C° 0.6 mm 4 m/S 714 mmHg 88%
    19:00 -1°C° 0.6 mm 3 m/S 715 mmHg 91%
    20:00 -1°C° 0.8 mm 3 m/S 716 mmHg 91%
    21:00 -1°C° 0.8 mm 3 m/S 716 mmHg 92%
    22:00 -1°C° 0.8 mm 3 m/S 717 mmHg 93%
    23:00 -1°C° 1 mm 3 m/S 717 mmHg 93%

    übermorgen, 27 Februar, Donnerstag

    Zeit Temperatur Niederschläge Wind Luftdruck Luftfeuchtigkeit
    00:00 -2°C° 1 mm 4 m/S 718 mmHg 93%
    01:00 -2°C° 1 mm 4 m/S 718 mmHg 93%
    02:00 -1°C° 0.3 mm 3 m/S 718 mmHg 93%
    03:00 -1°C° 0.3 mm 3 m/S 718 mmHg 94%
    04:00 -2°C° 0.3 mm 2 m/S 718 mmHg 94%
    05:00 -2°C° 0.1 mm 2 m/S 718 mmHg 91%
    06:00 -3°C° 0.1 mm 2 m/S 718 mmHg 89%
    07:00 -3°C° 0.1 mm 2 m/S 718 mmHg 86%
    08:00 -2°C° 0 mm 2 m/S 717 mmHg 81%
    09:00 +2°C° 0 mm 1 m/S 716 mmHg 76%
    10:00 +3°C° 0 mm 1 m/S 716 mmHg 71%
    11:00 +4°C° 0.1 mm 1 m/S 714 mmHg 75%
    12:00 +3°C° 0.1 mm 2 m/S 713 mmHg 79%
    13:00 +3°C° 0.1 mm 2 m/S 712 mmHg 82%
    14:00 +3°C° 0.9 mm 2 m/S 711 mmHg 84%
    15:00 +2°C° 0.9 mm 3 m/S 711 mmHg 86%
    16:00 +2°C° 0.9 mm 3 m/S 710 mmHg 89%
    17:00 +1°C° 0.7 mm 4 m/S 710 mmHg 90%
    18:00 +1°C° 0.7 mm 5 m/S 710 mmHg 92%
    19:00 +2°C° 0.7 mm 5 m/S 710 mmHg 93%
    20:00 +1°C° 1.2 mm 6 m/S 712 mmHg 92%
    21:00 +1°C° 1.2 mm 6 m/S 713 mmHg 90%
    22:00 -1°C° 1.2 mm 6 m/S 715 mmHg 89%
    23:00 -1°C° 0.7 mm 6 m/S 716 mmHg 90%

    28 Februar, Freitag

    Zeit Temperatur Niederschläge Wind Luftdruck Luftfeuchtigkeit
    00:00 -2°C° 0.7 mm 6 m/S 717 mmHg 90%
    01:00 -1°C° 0.7 mm 5 m/S 718 mmHg 91%
    02:00 -2°C° 0.3 mm 5 m/S 719 mmHg 92%
    03:00 -2°C° 0.3 mm 4 m/S 720 mmHg 93%
    04:00 -2°C° 0.3 mm 3 m/S 720 mmHg 94%
    05:00 -2°C° 0 mm 3 m/S 721 mmHg 93%
    06:00 -3°C° 0 mm 2 m/S 722 mmHg 92%
    07:00 -4°C° 0 mm 2 m/S 722 mmHg 91%
    08:00 -2°C° 0 mm 2 m/S 723 mmHg 86%
    09:00 +2°C° 0 mm 1 m/S 723 mmHg 81%
    10:00 +3°C° 0 mm 1 m/S 723 mmHg 76%
    11:00 +4°C° 0 mm 1 m/S 723 mmHg 75%
    12:00 +5°C° 0 mm 1 m/S 722 mmHg 74%
    13:00 +5°C° 0 mm 0 m/S 722 mmHg 73%
    14:00 +5°C° 0 mm 0 m/S 722 mmHg 74%
    15:00 +6°C° 0 mm 0 m/S 721 mmHg 76%
    16:00 +6°C° 0 mm 0 m/S 721 mmHg 78%
    17:00 +6°C° 0 mm 1 m/S 721 mmHg 80%
    18:00 +5°C° 0 mm 1 m/S 720 mmHg 83%
    19:00 +5°C° 0 mm 1 m/S 720 mmHg 85%
    20:00 +5°C° 0.2 mm 1 m/S 720 mmHg 87%
    21:00 +5°C° 0.2 mm 1 m/S 720 mmHg 89%
    22:00 +5°C° 0.2 mm 1 m/S 720 mmHg 91%
    23:00 +6°C° 0.3 mm 1 m/S 720 mmHg 92%

    29 Februar, Samstag

    Zeit Temperatur Niederschläge Wind Luftdruck Luftfeuchtigkeit
    00:00 +6°C° 0.3 mm 1 m/S 720 mmHg 94%
    01:00 +6°C° 0.3 mm 2 m/S 719 mmHg 95%
    02:00 +6°C° 0.3 mm 2 m/S 719 mmHg 95%
    03:00 +7°C° 0.3 mm 1 m/S 718 mmHg 95%
    04:00 +7°C° 0.3 mm 1 m/S 718 mmHg 95%
    05:00 +6°C° 0 mm 2 m/S 717 mmHg 92%
    06:00 +5°C° 0 mm 2 m/S 717 mmHg 89%
    07:00 +5°C° 0 mm 2 m/S 716 mmHg 86%
    08:00 +6°C° 0 mm 2 m/S 716 mmHg 88%
    09:00 +7°C° 0 mm 2 m/S 715 mmHg 89%
    10:00 +8°C° 0 mm 2 m/S 715 mmHg 91%
    11:00 +9°C° 0 mm 2 m/S 714 mmHg 89%
    12:00 +10°C° 0 mm 2 m/S 714 mmHg 87%
    13:00 +12°C° 0 mm 2 m/S 713 mmHg 85%
    14:00 +10°C° 0 mm 2 m/S 713 mmHg 85%
    15:00 +10°C° 0 mm 2 m/S 713 mmHg 86%
    16:00 +9°C° 0 mm 2 m/S 712 mmHg 86%
    17:00 +8°C° 0 mm 2 m/S 713 mmHg 84%
    18:00 +7°C° 0 mm 3 m/S 713 mmHg 82%
    19:00 +4°C° 0 mm 3 m/S 713 mmHg 80%
    20:00 +4°C° 0.5 mm 3 m/S 714 mmHg 81%
    21:00 +4°C° 0.5 mm 3 m/S 714 mmHg 82%
    22:00 +4°C° 0.5 mm 3 m/S 715 mmHg 84%
    23:00 +4°C° 1.9 mm 2 m/S 715 mmHg 88%

    1 März, Sonntag

    Zeit Temperatur Niederschläge Wind Luftdruck Luftfeuchtigkeit
    00:00 +4°C° 1.9 mm 2 m/S 715 mmHg 92%
    01:00 +4°C° 1.9 mm 2 m/S 715 mmHg 97%
    02:00 +4°C° 0.9 mm 2 m/S 715 mmHg 96%
    03:00 +3°C° 0.9 mm 2 m/S 715 mmHg 96%
    04:00 +3°C° 0.9 mm 2 m/S 715 mmHg 96%
    05:00 +3°C° 0.2 mm 2 m/S 715 mmHg 95%
    06:00 +3°C° 0.2 mm 2 m/S 715 mmHg 95%
    07:00 +2°C° 0.2 mm 2 m/S 715 mmHg 94%
    08:00 +3°C° 0 mm 2 m/S 715 mmHg 91%
    09:00 +4°C° 0 mm 2 m/S 715 mmHg 88%
    10:00 +5°C° 0 mm 2 m/S 715 mmHg 84%
    11:00 +6°C° 0 mm 2 m/S 715 mmHg 82%
    12:00 +7°C° 0 mm 2 m/S 714 mmHg 80%
    13:00 +8°C° 0 mm 3 m/S 714 mmHg 78%
    14:00 +8°C° 0 mm 2 m/S 713 mmHg 77%
    15:00 +8°C° 0 mm 2 m/S 713 mmHg 77%
    16:00 +8°C° 0 mm 2 m/S 712 mmHg 76%
    17:00 +6°C° 0 mm 2 m/S 712 mmHg 78%
    18:00 +5°C° 0 mm 2 m/S 712 mmHg 81%
    19:00 +4°C° 0 mm 2 m/S 712 mmHg 83%
    20:00 +4°C° 0 mm 2 m/S 712 mmHg 82%
    21:00 +4°C° 0 mm 2 m/S 712 mmHg 81%
    22:00 +4°C° 0 mm 2 m/S 711 mmHg 79%
    23:00 +4°C° 0.2 mm 2 m/S 711 mmHg 81%
    Mehr zeigen